Location: Cactus School
(34.5700°N, 118.0931°W)
Time: 14:58:15
(UTC-08:00)

Tiros 1 - Pass Details

Date: 24 November 2019
Orbit: 630 x 664 km, 48.4° (Epoch: 04 December)

Event Time Altitude Azimuth Distance (km) Brightness Sun altitude
Rises 17:37:24 0° 311° (NW) 2,921 11.0 -11.2°
Reaches altitude 10° 17:39:47 10° 316° (NW) 2,014 10.1 -11.7°
Maximum altitude 17:44:18 52° 33° (NNE) 790 7.3 -12.6°
Enters shadow 17:48:02 15° 107° (ESE) 1,722 8.8 -13.3°
Drops below altitude 10° 17:48:51 10° 110° (ESE) 2,023 - -13.5°
Sets 17:51:14 0° 115° (ESE) 2,936 - -13.9°
